Weather History for KPBI - March, 2012

Change the Weather History Date:

Monday, March 12, 2012

  Actual Average Record
Temperature  
Mean Temperature 74 °F 70 °F  
Max Temperature 77 °F 78 °F 90 °F (1948)
Min Temperature 70 °F 62 °F 34 °F (1924)
Degree Days  
Heating Degree Days 0 1  
Month to date heating degree days 3 12  
Since 1 July heating degree days 112 217  
Cooling Degree Days 9 6  
Month to date cooling degree days 95 70  
Year to date cooling degree days 411 305  
Growing Degree Days 24 (Base 50)    
Moisture  
Dew Point 61 °F    
Average Humidity 63    
Maximum Humidity 79    
Minimum Humidity 47    
Precipitation  
Precipitation 0.02 in 0.15 in 4.99 in (2010)
Month to date precipitation 1.08 1.67  
Year to date precipitation 5.28 7.62  
Snow  
Snow 0.00 in - - ()
Month to date snowfall 0.0  
Since 1 July snowfall 0.0  
Snow Depth 0.00 in    
Sea Level Pressure  
Sea Level Pressure 30.24 in    
Wind  
Wind Speed 14 mph (East)    
Max Wind Speed 23 mph    
Max Gust Speed 29 mph    
Visibility 10 miles    
Events Rain    
T = Trace of Precipitation, MM = Missing Value Source: NWS Daily Summary

Daily Weather History Graph

Daily Weather History Graph

Search for Another Location

Airport or City:

Trip Planner

Search our weather history database for the weather conditions in past years. The results will help you decide how hot, cold, wet, or windy it might be!

Date:

Astronomy

Mar. 12, 2012 Rise Set
Actual Time 7:32 AM EDT 7:27 PM EDT
Civil Twilight 7:09 AM EDT 7:51 PM EDT
Nautical Twilight 6:42 AM EDT 8:17 PM EDT
Astronomical Twilight 6:15 AM EDT 8:44 PM EDT
Moon No Moon Rise 10:24 AM EDT (3/12)
Length of Visible Light 12h 41m
Length of Day
11h 55m
Waning Gibbous, 76% of the Moon is Illuminated
Mar 12
Waning Gibbous
Mar 14
Last Quarter
Mar 22
New
Mar 30
First Quarter
Apr 6
Full

Hourly Weather History & Observations

Time (EDT) Temp. Dew Point Humidity Pressure Visibility Wind Dir Wind Speed Gust Speed Precip Events Conditions
12:53 AM 71.1 °F 64.0 °F 78% 30.26 in 10.0 mi East 19.6 mph 25.3 mph N/A   Overcast
1:53 AM 71.1 °F 63.0 °F 75% 30.25 in 10.0 mi East 18.4 mph 27.6 mph N/A   Overcast
2:53 AM 71.1 °F 62.1 °F 73% 30.23 in 10.0 mi East 17.3 mph 25.3 mph N/A   Mostly Cloudy
3:53 AM 71.1 °F 62.1 °F 73% 30.22 in 10.0 mi East 18.4 mph - N/A   Overcast
4:53 AM 71.1 °F 61.0 °F 70% 30.21 in 10.0 mi East 13.8 mph 25.3 mph N/A   Overcast
5:53 AM 71.1 °F 60.1 °F 68% 30.22 in 10.0 mi East 15.0 mph - N/A   Mostly Cloudy
6:53 AM 71.1 °F 60.1 °F 68% 30.23 in 10.0 mi East 15.0 mph - N/A   Mostly Cloudy
7:29 AM 71.6 °F 60.8 °F 69% 30.25 in 10.0 mi East 11.5 mph - N/A   Mostly Cloudy
7:53 AM 71.1 °F 60.1 °F 68% 30.25 in 10.0 mi East 11.5 mph - N/A   Mostly Cloudy
8:53 AM 72.0 °F 59.0 °F 64% 30.27 in 10.0 mi East 12.7 mph - N/A   Mostly Cloudy
9:53 AM 72.0 °F 63.0 °F 73% 30.29 in 10.0 mi ESE 12.7 mph - N/A   Mostly Cloudy
10:53 AM 72.0 °F 63.0 °F 73% 30.30 in 10.0 mi ESE 16.1 mph - 0.00 in   Mostly Cloudy
11:53 AM 73.9 °F 61.0 °F 64% 30.30 in 10.0 mi East 18.4 mph - N/A   Mostly Cloudy
12:10 PM 75.2 °F 60.8 °F 61% 30.29 in 10.0 mi East 17.3 mph 24.2 mph N/A   Mostly Cloudy
12:53 PM 75.9 °F 59.0 °F 56% 30.27 in 10.0 mi East 15.0 mph - N/A   Mostly Cloudy
1:53 PM 75.9 °F 57.9 °F 54% 30.25 in 10.0 mi ENE 15.0 mph 25.3 mph N/A   Scattered Clouds
2:53 PM 77.0 °F 55.9 °F 48% 30.22 in 10.0 mi East 13.8 mph 23.0 mph N/A   Scattered Clouds
3:53 PM 75.0 °F 57.9 °F 55% 30.21 in 10.0 mi East 16.1 mph 24.2 mph N/A   Scattered Clouds
4:53 PM 75.9 °F 59.0 °F 56% 30.20 in 10.0 mi East 15.0 mph - N/A   Scattered Clouds
5:53 PM 75.0 °F 60.1 °F 60% 30.20 in 10.0 mi East 8.1 mph - N/A   Mostly Cloudy
6:53 PM 73.0 °F 60.1 °F 64% 30.20 in 10.0 mi East 11.5 mph - N/A   Scattered Clouds
7:53 PM 73.0 °F 61.0 °F 66% 30.21 in 10.0 mi ENE 8.1 mph - N/A   Scattered Clouds
8:53 PM 72.0 °F 63.0 °F 73% 30.22 in 10.0 mi ENE 9.2 mph - 0.02 in Rain Light Rain
9:53 PM 72.0 °F 62.1 °F 71% 30.23 in 10.0 mi ENE 12.7 mph - 0.00 in   Mostly Cloudy
10:53 PM 72.0 °F 61.0 °F 68% 30.23 in 10.0 mi ENE 11.5 mph - N/A   Scattered Clouds
11:53 PM 72.0 °F 61.0 °F 68% 30.23 in 10.0 mi East 10.4 mph - N/A   Mostly Cloudy